Location: Gugi
(45.4667°N, 11.1000°E)
Time: 09:05:11
(UTC+00:00)

Cosmos 1743 Rocket - Pass Details

Date: 17 November 2019
Orbit: 605 x 632 km, 82.6° (Epoch: 14 December)

Event Time Altitude Azimuth Distance (km) Brightness Sun altitude
Rises 16:14:10 0° 349° (NNW) 2,879 6.9 -5.7°
Reaches altitude 10° 16:16:23 10° 347° (NNW) 1,974 6.1 -6.0°
Maximum altitude 16:20:44 71° 264° (W) 653 3.9 -6.8°
Drops below altitude 10° 16:25:04 10° 181° (S) 1,973 6.4 -7.5°
Sets 16:27:18 0° 179° (S) 2,878 7.2 -7.8°
